weather.gov     
National Weather Service

Terminal Aerodrome Forecast
NWS Homepage
This page is being discontinued on March 12, 2014.
The same data is available at this site. Please update your bookmarks.
Thank you, and we apologize for the inconvenience.
Please send an email to SR-SRH.Webmaster@noaa.gov with any concerns.


Current Version
Previous Version:    01  02  03  04  05  06  07  08  09  10  11  12  13  14  15  16  17  18  19  20  21  22  23  24  25  26  27  28  29  30  
   31  32  33  34  35  36  37  38  39  
[Printable]
785
FTUS46 KSEW 251100
TAFOLM
TAF
KOLM 251123Z 2512/2612 VRB03KT P6SM BCFG OVC070
      TEMPO 2512/2515 1/2SM FG OVC002
     FM251500 18005KT P6SM -RA FEW002 OVC045
     FM251800 18008KT P6SM -RA OVC040
     FM260200 21015G25KT P6SM -RA OVC020=


U.S. Dept. of Commerce
NOAA National Weather Service
1325 East West Highway
Silver Spring, MD 20910
E-mail: w-nws.webmaster@noaa.gov
Page last modified: May 16, 2007
NATIONAL WEATHER SERVICE: for Safety, for Work, for Fun - FOR LIFE